Time,TemperatureF,DewpointF,PressureIn,WindDirection,WindDirectionDegrees,WindSpeedMPH,WindSpeedGustMPH,Humidity,HourlyPrecipIn,Conditions,Clouds,dailyrainin,SoftwareType,DateUTC
2013-02-20 00:17:00,37.2,35.0,29.97,North,355,7.0,9.0,90,0.00,,,0.00,weatherlink.com 1.10,2013-02-20 08:17:00,
2013-02-20 00:33:00,36.7,34.0,29.98,North,5,2.0,6.0,91,0.00,,,0.00,weatherlink.com 1.10,2013-02-20 08:33:00,
2013-02-20 01:36:00,35.5,34.0,29.99,North,10,1.0,3.0,94,0.00,,,0.00,weatherlink.com 1.10,2013-02-20 09:36:00,
2013-02-20 01:48:00,35.4,34.0,29.99,North,11,0.0,3.0,94,0.00,,,0.00,weatherlink.com 1.10,2013-02-20 09:48:00,
2013-02-20 02:04:00,35.7,34.0,29.99,NE,54,2.0,4.0,94,0.00,,,0.00,weatherlink.com 1.10,2013-02-20 10:04:00,
2013-02-20 02:18:00,35.9,34.0,29.99,NE,55,2.0,4.0,94,0.00,,,0.00,weatherlink.com 1.10,2013-02-20 10:18:00,
2013-02-20 02:33:00,36.1,35.0,30.00,ENE,58,1.0,4.0,94,0.00,,,0.00,weatherlink.com 1.10,2013-02-20 10:33:00,
2013-02-20 02:48:00,36.5,35.0,30.00,ENE,60,2.0,4.0,93,0.00,,,0.00,weatherlink.com 1.10,2013-02-20 10:48:00,
2013-02-20 03:03:00,36.6,35.0,30.00,East,84,2.0,6.0,93,0.00,,,0.00,weatherlink.com 1.10,2013-02-20 11:03:00,
2013-02-20 03:18:00,36.6,35.0,30.00,East,85,2.0,5.0,93,0.00,,,0.00,weatherlink.com 1.10,2013-02-20 11:18:00,
2013-02-20 03:33:00,36.6,35.0,30.00,East,85,2.0,5.0,94,0.00,,,0.00,weatherlink.com 1.10,2013-02-20 11:33:00,
2013-02-20 03:48:00,36.9,35.0,30.00,East,86,3.0,6.0,94,0.00,,,0.00,weatherlink.com 1.10,2013-02-20 11:48:00,
2013-02-20 04:03:00,36.9,35.0,30.00,East,87,2.0,5.0,94,0.00,,,0.00,weatherlink.com 1.10,2013-02-20 12:03:00,
2013-02-20 04:18:00,37.1,36.0,30.00,East,96,2.0,7.0,95,0.00,,,0.00,weatherlink.com 1.10,2013-02-20 12:18:00,
2013-02-20 04:33:00,37.1,36.0,30.00,East,95,3.0,6.0,95,0.00,,,0.00,weatherlink.com 1.10,2013-02-20 12:33:00,
2013-02-20 04:48:00,36.9,36.0,30.00,East,95,3.0,6.0,95,0.00,,,0.00,weatherlink.com 1.10,2013-02-20 12:48:00,
2013-02-20 05:03:00,37.1,36.0,30.00,ESE,105,4.0,7.0,96,0.00,,,0.00,weatherlink.com 1.10,2013-02-20 13:03:00,
2013-02-20 05:18:00,37.2,36.0,30.00,ESE,106,3.0,7.0,96,0.00,,,0.00,weatherlink.com 1.10,2013-02-20 13:18:00,
2013-02-20 05:33:00,37.4,37.0,30.00,ESE,105,3.0,8.0,97,0.00,,,0.00,weatherlink.com 1.10,2013-02-20 13:33:00,
2013-02-20 05:48:00,37.5,37.0,30.00,East,100,5.0,9.0,97,0.00,,,0.00,weatherlink.com 1.10,2013-02-20 13:48:00,
2013-02-20 06:03:00,37.4,37.0,30.00,ESE,119,3.0,10.0,97,0.00,,,0.00,weatherlink.com 1.10,2013-02-20 14:03:00,
2013-02-20 06:18:00,37.4,37.0,30.00,ESE,106,3.0,9.0,97,0.00,,,0.00,weatherlink.com 1.10,2013-02-20 14:18:00,
2013-02-20 06:33:00,37.2,37.0,29.99,ESE,112,3.0,10.0,97,0.00,,,0.00,weatherlink.com 1.10,2013-02-20 14:33:00,
2013-02-20 06:48:00,37.2,37.0,29.99,SE,145,3.0,8.0,97,0.00,,,0.00,weatherlink.com 1.10,2013-02-20 14:48:00,
2013-02-20 07:03:00,37.2,37.0,29.99,ESE,123,4.0,9.0,97,0.00,,,0.00,weatherlink.com 1.10,2013-02-20 15:03:00,
2013-02-20 07:18:00,37.1,37.0,29.99,ESE,103,4.0,10.0,98,0.00,,,0.00,weatherlink.com 1.10,2013-02-20 15:18:00,
2013-02-20 07:33:00,37.0,37.0,29.99,SE,129,3.0,9.0,98,0.00,,,0.00,weatherlink.com 1.10,2013-02-20 15:33:00,
2013-02-20 07:48:00,37.0,36.0,29.99,ESE,107,2.0,7.0,97,0.00,,,0.00,weatherlink.com 1.10,2013-02-20 15:48:00,
2013-02-20 08:03:00,36.9,36.0,29.98,ESE,109,4.0,10.0,97,0.00,,,0.00,weatherlink.com 1.10,2013-02-20 16:03:00,
2013-02-20 08:18:00,36.6,36.0,29.98,ESE,105,4.0,15.0,97,0.00,,,0.00,weatherlink.com 1.10,2013-02-20 16:18:00,
2013-02-20 08:33:00,36.8,36.0,29.99,ESE,115,3.0,10.0,97,0.00,,,0.00,weatherlink.com 1.10,2013-02-20 16:33:00,
2013-02-20 08:48:00,36.9,36.0,29.99,ESE,122,4.0,9.0,98,0.02,,,0.02,weatherlink.com 1.10,2013-02-20 16:48:00,
2013-02-20 09:03:00,37.0,37.0,29.99,SE,134,2.0,7.0,98,0.03,,,0.03,weatherlink.com 1.10,2013-02-20 17:03:00,
2013-02-20 09:18:00,36.6,36.0,29.99,SE,136,3.0,8.0,98,0.09,,,0.09,weatherlink.com 1.10,2013-02-20 17:18:00,
2013-02-20 09:33:00,36.9,36.0,29.99,ESE,102,7.0,9.0,98,0.11,,,0.11,weatherlink.com 1.10,2013-02-20 17:33:00,
2013-02-20 09:48:00,37.0,37.0,29.99,ESE,119,4.0,9.0,98,0.10,,,0.12,weatherlink.com 1.10,2013-02-20 17:48:00,
2013-02-20 10:03:00,37.0,37.0,29.99,ESE,111,2.0,7.0,98,0.11,,,0.14,weatherlink.com 1.10,2013-02-20 18:03:00,
2013-02-20 10:18:00,37.1,37.0,29.99,ESE,117,5.0,11.0,98,0.06,,,0.15,weatherlink.com 1.10,2013-02-20 18:18:00,
2013-02-20 10:48:00,37.1,37.0,30.00,East,101,7.0,11.0,99,0.02,,,0.15,weatherlink.com 1.10,2013-02-20 18:48:00,
2013-02-20 11:03:00,37.3,37.0,30.00,ESE,103,8.0,13.0,99,0.01,,,0.15,weatherlink.com 1.10,2013-02-20 19:03:00,
2013-02-20 11:19:00,37.4,37.0,29.99,ESE,109,8.0,12.0,99,0.00,,,0.15,weatherlink.com 1.10,2013-02-20 19:19:00,
2013-02-20 11:33:00,37.7,38.0,29.99,ESE,105,5.0,12.0,99,0.00,,,0.15,weatherlink.com 1.10,2013-02-20 19:33:00,
2013-02-20 11:48:00,37.7,38.0,29.99,East,93,6.0,14.0,99,0.00,,,0.15,weatherlink.com 1.10,2013-02-20 19:48:00,
2013-02-20 12:03:00,37.8,37.0,29.97,ESE,109,7.0,15.0,98,0.00,,,0.15,weatherlink.com 1.10,2013-02-20 20:03:00,
2013-02-20 12:18:00,38.5,38.0,29.97,ESE,102,5.0,13.0,98,0.00,,,0.15,weatherlink.com 1.10,2013-02-20 20:18:00,
2013-02-20 12:48:00,37.9,37.0,29.97,SE,124,4.0,13.0,98,0.00,,,0.15,weatherlink.com 1.10,2013-02-20 20:48:00,
2013-02-20 13:19:00,37.7,37.0,29.98,ENE,75,7.0,10.0,98,0.00,,,0.15,weatherlink.com 1.10,2013-02-20 21:19:00,
2013-02-20 13:34:00,37.7,37.0,29.97,SE,134,8.0,10.0,98,0.00,,,0.15,weatherlink.com 1.10,2013-02-20 21:34:00,
2013-02-20 13:49:00,37.6,37.0,29.97,East,92,9.0,14.0,98,0.00,,,0.15,weatherlink.com 1.10,2013-02-20 21:49:00,
2013-02-20 14:04:00,37.6,37.0,29.97,East,101,7.0,12.0,98,0.00,,,0.15,weatherlink.com 1.10,2013-02-20 22:04:00,
2013-02-20 14:19:00,37.9,37.0,29.97,ESE,108,5.0,11.0,98,0.00,,,0.15,weatherlink.com 1.10,2013-02-20 22:19:00,
2013-02-20 14:34:00,38.0,38.0,29.97,ESE,109,2.0,9.0,98,0.00,,,0.15,weatherlink.com 1.10,2013-02-20 22:34:00,
2013-02-20 14:49:00,37.9,37.0,29.97,ESE,107,3.0,9.0,98,0.01,,,0.16,weatherlink.com 1.10,2013-02-20 22:49:00,
2013-02-20 15:04:00,38.2,38.0,29.97,ESE,110,4.0,9.0,98,0.01,,,0.16,weatherlink.com 1.10,2013-02-20 23:04:00,
2013-02-20 15:19:00,38.4,38.0,29.97,ESE,113,3.0,12.0,98,0.01,,,0.16,weatherlink.com 1.10,2013-02-20 23:19:00,
2013-02-20 15:34:00,38.4,38.0,29.97,ESE,108,3.0,11.0,98,0.01,,,0.16,weatherlink.com 1.10,2013-02-20 23:34:00,
2013-02-20 15:49:00,38.7,39.0,29.97,ESE,117,3.0,11.0,99,0.00,,,0.16,weatherlink.com 1.10,2013-02-20 23:49:00,
2013-02-20 16:04:00,38.5,38.0,29.97,East,92,3.0,11.0,98,0.00,,,0.16,weatherlink.com 1.10,2013-02-21 00:04:00,
2013-02-20 16:19:00,38.1,38.0,29.97,East,101,6.0,10.0,98,0.01,,,0.17,weatherlink.com 1.10,2013-02-21 00:19:00,
2013-02-20 16:34:00,37.8,37.0,29.97,East,88,6.0,14.0,98,0.01,,,0.17,weatherlink.com 1.10,2013-02-21 00:34:00,
2013-02-20 16:49:00,37.7,37.0,29.97,ESE,108,4.0,10.0,98,0.01,,,0.17,weatherlink.com 1.10,2013-02-21 00:49:00,
2013-02-20 17:04:00,37.6,37.0,29.97,East,98,5.0,9.0,97,0.01,,,0.17,weatherlink.com 1.10,2013-02-21 01:04:00,
2013-02-20 17:19:00,37.4,37.0,29.98,East,94,3.0,10.0,97,0.00,,,0.17,weatherlink.com 1.10,2013-02-21 01:19:00,
2013-02-20 17:34:00,37.4,37.0,29.98,ESE,105,4.0,11.0,97,0.00,,,0.17,weatherlink.com 1.10,2013-02-21 01:34:00,
2013-02-20 17:49:00,37.4,37.0,29.98,ENE,78,7.0,9.0,97,0.00,,,0.17,weatherlink.com 1.10,2013-02-21 01:49:00,
2013-02-20 18:04:00,37.5,37.0,29.98,ESE,104,4.0,11.0,97,0.00,,,0.17,weatherlink.com 1.10,2013-02-21 02:04:00,
2013-02-20 18:19:00,37.5,37.0,29.98,ESE,118,8.0,11.0,98,0.00,,,0.17,weatherlink.com 1.10,2013-02-21 02:19:00,
2013-02-20 18:34:00,37.5,37.0,29.98,ESE,109,3.0,12.0,97,0.00,,,0.17,weatherlink.com 1.10,2013-02-21 02:34:00,
2013-02-20 18:49:00,37.5,37.0,29.98,ESE,111,3.0,10.0,97,0.00,,,0.17,weatherlink.com 1.10,2013-02-21 02:49:00,
2013-02-20 19:04:00,37.5,37.0,29.99,East,91,5.0,10.0,98,0.00,,,0.17,weatherlink.com 1.10,2013-02-21 03:04:00,
2013-02-20 19:19:00,37.6,37.0,29.99,ESE,103,7.0,9.0,98,0.00,,,0.17,weatherlink.com 1.10,2013-02-21 03:19:00,
2013-02-20 19:34:00,37.6,37.0,29.99,East,98,2.0,10.0,98,0.00,,,0.17,weatherlink.com 1.10,2013-02-21 03:34:00,
2013-02-20 19:49:00,37.5,37.0,29.99,ESE,123,7.0,10.0,98,0.00,,,0.17,weatherlink.com 1.10,2013-02-21 03:49:00,
2013-02-20 20:04:00,37.4,37.0,30.00,ESE,108,4.0,10.0,97,0.00,,,0.17,weatherlink.com 1.10,2013-02-21 04:04:00,
2013-02-20 20:19:00,37.3,37.0,30.00,ESE,112,7.0,11.0,98,0.00,,,0.17,weatherlink.com 1.10,2013-02-21 04:19:00,
2013-02-20 20:34:00,37.2,37.0,30.00,ESE,120,8.0,11.0,98,0.00,,,0.17,weatherlink.com 1.10,2013-02-21 04:34:00,
2013-02-20 20:49:00,37.0,37.0,30.00,East,101,6.0,11.0,98,0.00,,,0.17,weatherlink.com 1.10,2013-02-21 04:49:00,
2013-02-20 21:04:00,36.9,36.0,30.00,ESE,116,4.0,11.0,97,0.00,,,0.17,weatherlink.com 1.10,2013-02-21 05:04:00,
2013-02-20 21:20:00,37.0,36.0,30.00,ESE,112,4.0,9.0,97,0.00,,,0.17,weatherlink.com 1.10,2013-02-21 05:20:00,
2013-02-20 21:34:00,37.2,37.0,30.00,ESE,107,7.0,10.0,97,0.00,,,0.17,weatherlink.com 1.10,2013-02-21 05:34:00,
2013-02-20 21:50:00,37.2,37.0,30.00,SE,140,6.0,14.0,97,0.00,,,0.17,weatherlink.com 1.10,2013-02-21 05:50:00,
2013-02-20 22:05:00,37.1,36.0,30.00,ESE,117,7.0,12.0,96,0.00,,,0.17,weatherlink.com 1.10,2013-02-21 06:05:00,
2013-02-20 22:20:00,37.1,36.0,30.00,ESE,120,4.0,14.0,96,0.00,,,0.17,weatherlink.com 1.10,2013-02-21 06:20:00,
2013-02-20 22:35:00,37.1,36.0,30.00,ESE,105,4.0,11.0,95,0.00,,,0.17,weatherlink.com 1.10,2013-02-21 06:35:00,
2013-02-20 22:49:00,37.2,36.0,29.99,ESE,110,4.0,13.0,95,0.00,,,0.17,weatherlink.com 1.10,2013-02-21 06:49:00,
2013-02-20 23:04:00,37.2,36.0,29.98,ESE,103,12.0,21.0,95,0.00,,,0.17,weatherlink.com 1.10,2013-02-21 07:04:00,
2013-02-20 23:19:00,37.0,36.0,29.98,SE,131,7.0,15.0,95,0.00,,,0.17,weatherlink.com 1.10,2013-02-21 07:19:00,
2013-02-20 23:34:00,36.9,36.0,29.98,ESE,103,8.0,14.0,95,0.00,,,0.17,weatherlink.com 1.10,2013-02-21 07:34:00,
2013-02-20 23:49:00,36.7,36.0,29.98,ESE,106,7.0,16.0,96,0.00,,,0.17,weatherlink.com 1.10,2013-02-21 07:49:00,